STARLINK-4697, 53726

Orbit data source: Space-Track

STARLINK-4697, 53726 is a payload satellite owned by SpaceX/Seattle (US) in LEO that was launched on Mon, 05 Sep 2022 UTC via an FALCON 9 launch vehicle from the Air Force Eastern Test Range (AFETR). Payload-class satellites include a variety of spacecraft equipped with specific instruments for various scientific and technological missions. These include communications satellites like Starlink; space stations such as the ISS; scientific satellites like the Hubble; Earth observation satellites from companies like Planet Labs, Umbra, and HawkEye 360; GPS; miniature CubeSats for education and research; and military/defense satellites.

Loading next visibility...
Identifier
53726, 2022-107AC
Orbit
LEO
Country
Flag of USUS
Related business
Manufacturer
SpaceX/Seattle
Mission
Operational Commercial Communications
Bus & Motor
STARLINK, Unknown motor
Mass
305 kg wet, ~290 kg dry
Launch date (UTC)
2022-09-05 (4 years ago)
Launch vehicle
FALCON 9
Launch site
Air Force Eastern Test Range (AFETR)
Object type
Payload
Rocket body
Debris
Shape & HBR
Box + 1 Pan, 10.1 m
Radar Cross Section
13.562 m², Large (>1 m²)

Expand to show TLE details & history
Last TLE update: 2 days ago

TLE from 2 days ago
0 STARLINK-4697
1 53726U 22107AC  26171.21797813  .00001182  00000-0  92367-4 0  9993
2 53726  53.1606 153.6147 0001196  79.1670 280.9456 15.08832623209890
Epoch: 2026-06-20T05:13Z
TLE epoch observation values (Epoch: 2026-06-20T05:13:53.310Z)
Latitude
-0.00002°
Longitude
166.7068°
Altitude
540.5 km
Speed
7.593 km/s
True Right ascension
10h 14m 27s
True Declination
0° 00' 00"
Sunlit
Object was in daylight at epoch
Visualization orbit readout
Latitude
Unknown
Longitude
Unknown
Altitude
Unknown
Speed
Unknown
Apparent Right ascension
Unknown
Apparent Declination
Unknown
Sunlit
N/A
Visualization observer readout
Local Sidereal Time
21:30:04
Azimuth
Unknown
Elevation
Unknown
Doppler factor
Unknown
Orbital elements
Apogee altitude
540.847 km
Perigee altitude
539.193 km
Semi-major axis
6,918.157 km
Eccentricity
0.00012
Inclination
53.1606°
RAAN
153.6147°
Arg. of periapsis
79.167°
True anomaly
280.93214°
Mean anomaly
280.9456°
Eccentric anomaly
280.93887°
Mean motion
3.77188 °/min
Orbital period
95.44 mins
BSTAR
0.000092367
Loading maneuver chart data...
Computing Atmospheric mass density...
Loading historical data...
Loading historical data...
Loading historical data...
Loading historical data...
Loading historical data...
Loading historical data...
Loading historical data...

Documentation

Showing up to 5 results
|